Voltar ao catálogo

FENGYUN 1C DEB

AtivoPO
NORAD 30959·DEBRIS·🇨🇳 China

Lançado May 10, 1999 de Taiyuan Satellite Launch Center

Loading…

Próximas Passagens (próximas 24 horas)

TLE

EnvelhecendoSource: Space-Track

Época: Sep 6, 2026, 04:38 UTC

1 30959U 99025BAZ 26249.19372397  .00002687  00000-0  83948-3 0  9993
2 30959  99.7053 237.6795 0048745 153.6148 206.7535 14.41073708642348

Acompanhe FENGYUN 1C DEB em tempo real com AllMySat

Download on the App Store